Location: Courcelles
(49.2596°N, 1.7419°E)
Time: 20:32:40
(UTC+00:00)

CZ-2D R/B - Pass Details

Date: 17 November 2025
Orbit: 404 x 412 km, 97.4° (Epoch: 10 December)

Event Time Altitude Azimuth Distance (km) Brightness Sun altitude
Rises 17:09:00 0° 159° (SSE) 2,332 6.5 -9.8°
Reaches altitude 10° 17:10:59 10° 156° (SSE) 1,473 5.4 -10.1°
Maximum altitude 17:14:06 64° 74° (ENE) 459 2.6 -10.6°
Drops below altitude 10° 17:17:13 10° 353° (N) 1,479 5.4 -11.1°
Sets 17:19:14 0° 350° (N) 2,344 6.5 -11.4°
